Regional Weather Roundup
Issued by NWS Green Bay, WI

Home | Current Version | Previous Version | Text Only | Print | Product List | Glossary On
Versions: 1 2 3 4 5 6 7 8 9 10 11 12 13 14 15 16 17 18 19 20 21 22 23 24 25 26 27 28 29 30 31 32 33 34 35 36 37 38 39 40 41 42 43 44 45 46 47 48 49 50
648
ASUS43 KGRB 230500
RWRGRB

NORTH-CENTRAL AND NORTHEAST WISCONSIN REGIONAL WEATHER ROUNDUP
NATIONAL WEATHER SERVICE GREEN BAY WI
1200 AM CDT WED AUG 23 2017

WIZ005-009-010>012-018-019-230600-
NORTH CENTRAL WISCONSIN

CITY           SKY/WX    TMP DP  RH WIND       PRES   REMARKS
IRONWOOD       CLOUDY    55  54  96 W7        29.96R
MANITOWISH WTR NOT AVBL
ARBOR VITAE    NOT AVBL
EAGLE RIVER    NOT AVBL
LAND O LAKES   NOT AVBL
RHINELANDER    CLEAR     55  51  86 W6        29.96R
PHILLIPS       CLEAR     55  52  89 NW5       29.97S
ANTIGO         NOT AVBL
TOMAHAWK       NOT AVBL
MERRILL        NOT AVBL
$$

WIZ013-073-230600-
NORTHEAST WISCONSIN

CITY           SKY/WX    TMP DP  RH WIND       PRES   REMARKS
IRON MOUNTAIN  CLEAR     56  50  80 W9        29.89R
MARINETTE      CLEAR     58  52  80 W3        29.90S
$$

WIZ017-030-035>037-045-230600-
CENTRAL WISCONSIN

CITY           SKY/WX    TMP DP  RH WIND       PRES   REMARKS
MEDFORD        NOT AVBL
WAUSAU         CLEAR     57  50  77 W10       29.96R
MOSINEE        NOT AVBL
MARSHFIELD     CLEAR     56  47  71 W6        29.98S
WISC RAPIDS    CLEAR     58  49  72 W8        30.00R
STEVENS POINT  NOT AVBL
WAUPACA        NOT AVBL
SHAWANO        NOT AVBL
CLINTONVILLE   NOT AVBL
WAUTOMA        CLEAR     56  50  80 W6        29.99R
$$

WIZ038-039-048-051-230600-
FOX VALLEY

CITY           SKY/WX    TMP DP  RH WIND       PRES   REMARKS
NWS GREEN BAY  CLEAR     59  52  77 W9        29.94R
APPLETON       NOT AVBL
OSHKOSH        CLEAR     59  49  69 CALM      29.96S
FOND DU LAC    CLEAR     61  48  62 W9        29.97S
$$

WIZ022-050-052-230600-
EAST CENTRAL WISCONSIN

CITY           SKY/WX    TMP DP  RH WIND       PRES   REMARKS
EPHRAIM        NOT AVBL
WASHINGTON ISL NOT AVBL
STURGEON BAY   CLEAR     63  53  70 W10       29.91R
MANITOWOC      NOT AVBL
SHEBOYGAN      CLEAR     57  54  89 W5        29.96R
$$

LMZ563-521-522-541>543-230600-
LAKESHORE

STATION/POSITION TIME  TEMP    WIND        PRES    VSBY  WAVE
                       AIR SEA DIR/SP/G                  HT/PER
                 (UTC) (F)     (DEG/KT/KT) (MB)    (MI)  (FT/S)
SHEBOYGAN LKSHOR 0400   65     290/  8/  9 1013.6R
KEWAUNEE LKSHORE 0430   60     290/  3/  4 1012.0F
NORTHPORT PIER   0440   64     290/ 10/ 18 1011.2S
N MID LAKE BUOY  0350   66 67  290/ 19/ 23 1010.7F         3/ 4
S GREEN BAY BUOY 0430   66 71  270/ 14/ 19 1012.5R
SISTER BAY LKSHO 0418   65     310/ 19/ 24   N/A
MENOMINEE LKSHOR 0430   62     260/  6/ 10 1012.1R
$$




USA.gov is the U.S. government's official web portal to all federal, state and local government web resources and services.